Content
SEND FEEDBACK

Daily
Averages
Monthly
Summary
United States of America

TRENT, TEXAS


Home > North America > United States > Texas
Elevation: 1910 feet     Latitude: 32 30N     Longitude: 100 06W

WEATHER
 
SELECT A DAY
Number of Records: 294,484;   Date Range: 4/30/02 - 9/16/14
 
SHARE

PRINT THIS DATA

[ ← Previous Day ]
WEATHER ALMANAC - JANUARY 31, 2013
[ Next Day → ]
[ °C ]   °F
Weather ElementAverageHighLow
Temperature49.7 °F64.4 °F (3:35 pm)33.8 °F (7:35 am)
Dewpoint13.6 °F26.6 °F (11:35 pm)5 °F (1:35 am)
Humidity24.9 %53 % (11:35 pm)14 % (4:15 pm)
Barometer30.19 in30.29 in (11:35 pm)30.13 in (4:35 am)
Wind Speed10.6 mph19.6 mph (10:35 am)
Wind Gust25.3 mph (10:15 am)
Weather ElementAverage
Visibility10 mi
Wind DirectionSSW (193.3 °)

Weather ElementTotal
Precipitation---
Heating Degree Days15.9 (Base 65)
Averaged from 70 records on January 31, 2013
WEATHER CONDITIONS BREAKOUT
WIND DIRECTION BREAKOUT
WEATHER BY HOUR - JANUARY 31, 2013
[ °C ]   °F
Local TimeTemperatureDewpointHumidityBarometerVisibilityWind DirectionWind SpeedGust SpeedPrecipitationEventsConditions
12:35 AM39.2 °F6.8 °F26 %30.16 in10.0 miSSW (210°)12.7 mphClear
12:55 AM39.2 °F6.8 °F26 %30.16 in10.0 miSSW (210°)12.7 mphClear
1:15 AM39.2 °F6.8 °F26 %30.16 in10.0 miSSW (200°)15.0 mphClear
1:35 AM39.2 °F5.0 °F24 %30.16 in10.0 miSSW (210°)13.8 mphClear
1:55 AM39.2 °F5.0 °F24 %30.15 in10.0 miSSW (210°)12.7 mphClear
2:15 AM37.4 °F6.8 °F28 %30.16 in10.0 miSSW (210°)12.7 mphClear
2:35 AM39.2 °F5.0 °F24 %30.15 in10.0 miSSW (210°)12.7 mphClear
2:55 AM41.0 °F5.0 °F23 %30.15 in10.0 miSSW (200°)15.0 mphClear
3:15 AM41.0 °F5.0 °F23 %30.16 in10.0 miSSW (200°)15.0 mphClear
3:35 AM39.2 °F5.0 °F24 %30.16 in10.0 miSSW (210°)15.0 mphClear
3:55 AM39.2 °F5.0 °F24 %30.16 in10.0 miSSW (210°)15.0 mphClear
4:15 AM39.2 °F5.0 °F24 %30.15 in10.0 miSSW (210°)13.8 mphClear
4:35 AM37.4 °F6.8 °F28 %30.13 in10.0 miSSW (210°)13.8 mphClear
4:55 AM37.4 °F8.6 °F30 %30.13 in10.0 miSW (220°)15.0 mphClear
5:15 AM37.4 °F8.6 °F30 %30.13 in10.0 miSSW (210°)11.5 mphClear
5:35 AM35.6 °F8.6 °F33 %30.13 in10.0 miSSW (210°)13.8 mphClear
6:15 AM35.6 °F10.4 °F35 %30.13 in10.0 miSSW (210°)12.7 mphClear
6:35 AM35.6 °F10.4 °F35 %30.14 in10.0 miSSW (210°)12.7 mphClear
6:55 AM35.6 °F10.4 °F35 %30.15 in10.0 miSW (220°)11.5 mphClear
7:15 AM35.6 °F10.4 °F35 %30.15 in10.0 miSW (220°)12.7 mphClear
7:35 AM33.8 °F10.4 °F38 %30.15 in10.0 miSW (220°)12.7 mphClear
7:55 AM35.6 °F10.4 °F35 %30.16 in10.0 miSSW (210°)13.8 mphClear
8:15 AM35.6 °F12.2 °F38 %30.16 in10.0 miSSW (210°)15.0 mphClear
8:35 AM39.2 °F12.2 °F33 %30.17 in10.0 miSSW (210°)16.1 mph20.7 mphClear
8:55 AM41.0 °F12.2 °F31 %30.18 in10.0 miSW (220°)13.8 mphClear
9:15 AM44.6 °F14.0 °F29 %30.19 in10.0 miSW (230°)15.0 mphClear
9:35 AM46.4 °F14.0 °F27 %30.20 in10.0 miSSW (210°)17.3 mphClear
9:55 AM48.2 °F14.0 °F25 %30.21 in10.0 miSW (220°)18.4 mphClear
10:15 AM50.0 °F15.8 °F26 %30.21 in10.0 miWSW (240°)18.4 mph25.3 mphClear
10:35 AM51.8 °F17.6 °F26 %30.21 in10.0 miWSW (240°)19.6 mph25.3 mphClear
10:55 AM53.6 °F17.6 °F24 %30.21 in10.0 miWSW (240°)17.3 mph24.2 mphClear
11:15 AM53.6 °F19.4 °F26 %30.21 in10.0 miWSW (250°)19.6 mph24.2 mphClear
11:35 AM55.4 °F19.4 °F25 %30.21 in10.0 miWSW (250°)17.3 mph23.0 mphClear
11:55 AM57.2 °F19.4 °F23 %30.21 in10.0 miWSW (250°)16.1 mph20.7 mphClear
12:15 PM57.2 °F19.4 °F23 %30.20 in10.0 miWest (260°)13.8 mph21.9 mphClear
12:35 PM59.0 °F19.4 °F22 %30.19 in10.0 miWest (260°)17.3 mphClear
12:55 PM59.0 °F19.4 °F22 %30.18 in10.0 miWSW (240°)15.0 mph19.6 mphClear
1:15 PM60.8 °F19.4 °F20 %30.18 in10.0 miWest (270°)16.1 mph20.7 mphClear
1:35 PM59.0 °F19.4 °F22 %30.16 in10.0 miWSW (240°)8.1 mph15.0 mphClear
1:55 PM60.8 °F17.6 °F19 %30.15 in10.0 miWest (260°)9.2 mphClear
2:15 PM62.6 °F15.8 °F16 %30.15 in10.0 miWest (280°)9.2 mph17.3 mphClear
2:35 PM62.6 °F15.8 °F16 %30.15 in10.0 miWest (270°)6.9 mph17.3 mphClear
2:55 PM62.6 °F15.8 °F16 %30.14 in10.0 miWSW (240°)11.5 mphClear
3:15 PM62.6 °F15.8 °F16 %30.15 in10.0 miWSW (250°)5.8 mphClear
3:35 PM64.4 °F15.8 °F15 %30.16 in10.0 miWSW (240°)5.8 mphClear
3:55 PM64.4 °F15.8 °F15 %30.16 in10.0 miSW (230°)12.7 mph17.3 mphClear
4:15 PM64.4 °F14.0 °F14 %30.17 in10.0 miWest (260°)9.2 mphClear
4:35 PM62.6 °F14.0 °F15 %30.17 in10.0 miWest (270°)9.2 mph17.3 mphClear
4:55 PM62.6 °F14.0 °F15 %30.17 in10.0 miWest (280°)9.2 mph16.1 mphClear
5:15 PM62.6 °F14.0 °F15 %30.17 in10.0 miWest (280°)8.1 mphClear
5:35 PM62.6 °F14.0 °F15 %30.18 in10.0 miWNW (290°)4.6 mphClear
5:55 PM60.8 °F15.8 °F17 %30.18 in10.0 miCalmClear
6:15 PM60.8 °F14.0 °F16 %30.18 in10.0 miWest (260°)4.6 mphClear
6:35 PM59.0 °F15.8 °F19 %30.19 in10.0 miNW (310°)3.5 mphClear
6:55 PM59.0 °F14.0 °F17 %30.21 in10.0 miCalmClear
7:15 PM59.0 °F12.2 °F16 %30.22 in10.0 miCalmClear
7:35 PM59.0 °F12.2 °F16 %30.22 in10.0 miCalmClear
7:55 PM59.0 °F12.2 °F16 %30.22 in10.0 miCalmClear
8:15 PM59.0 °F12.2 °F16 %30.23 in10.0 miCalmClear
8:35 PM51.8 °F17.6 °F26 %30.24 in10.0 miSouth (180°)6.9 mphClear
8:55 PM51.8 °F17.6 °F26 %30.24 in10.0 miSouth (180°)6.9 mphClear
9:15 PM51.8 °F17.6 °F26 %30.24 in10.0 miSouth (170°)5.8 mphClear
9:35 PM51.8 °F17.6 °F26 %30.25 in10.0 miSE (140°)4.6 mphClear
9:55 PM44.6 °F19.4 °F37 %30.26 in10.0 miEast (90°)3.5 mphClear
10:15 PM50.0 °F17.6 °F28 %30.26 in10.0 miEast (90°)3.5 mphClear
10:35 PM51.8 °F17.6 °F26 %30.26 in10.0 miEast (100°)4.6 mphClear
10:55 PM51.8 °F17.6 °F26 %30.27 in10.0 miESE (110°)4.6 mphClear
11:15 PM51.8 °F17.6 °F26 %30.27 in10.0 miNE (50°)3.5 mphClear
11:35 PM42.8 °F26.6 °F53 %30.29 in10.0 miNorth (10°)6.9 mphClear
11:55 PM42.8 °F26.6 °F53 %30.29 in10.0 miNNE (20°)10.4 mphClear
Hourly data recorded from KSWW, located miles away from Trent, Texas







STORIES FROM OUR PARTNERS